Date String (YYYY-MM-DD hh:mm:ss) UTC,Instrument flags,Ambient pressure (hPa),Sample flow (lpm),Bypass flow (lpm),Sample temperature (°C),Ambient temperature (°C),ASC tube jacket temperature (°C),LED temperature (°C),Box temperature (°C),Sample RH (%),Span deviation,Mass concentration (μg/m³),Mass concentration (μg/m³),Mass concentration (μg/m³)
DateTimeUTC,F1_M11,P_M11,Q1_M11,Q2_M11,T1_M11,T2_M11,T3_M11,T4_M11,T5_M11,U1_M11,ZSPAN_M11,X0_M11,X2_M11,X1_M11
2022-06-18 09:00:00,,0823.2,5.00,0.00,29.8,28.9,00.0,38.6,31.7,20.3,0002.0,0011.72,0006.39,0005.21
2022-06-18 09:01:00,,0823.2,5.01,0.00,29.8,28.9,00.0,38.6,31.8,20.3,0003.5,0011.93,0006.46,0005.29
2022-06-18 09:02:00,,0823.2,4.99,0.00,29.8,28.9,00.0,38.6,31.7,20.3,0003.4,0011.99,0006.52,0005.35
2022-06-18 09:03:00,,0823.2,4.99,0.00,29.9,28.8,00.0,38.6,31.7,20.2,0003.0,0012.00,0006.54,0005.40
2022-06-18 09:04:00,,0823.2,5.00,0.00,29.8,27.9,00.0,38.5,31.6,20.2,0000.5,0012.08,0006.56,0005.43
2022-06-18 09:05:00,,0823.2,5.01,0.00,29.7,27.4,00.0,38.5,31.4,20.3,0000.0,0012.04,0006.58,0005.44
2022-06-18 09:06:00,,0823.3,4.99,0.00,29.7,27.4,00.0,38.5,31.4,20.3,0000.0,0011.95,0006.55,0005.44
2022-06-18 09:07:00,,0823.3,5.00,0.00,29.6,27.5,00.0,38.5,31.3,20.4,0000.0,0011.41,0006.47,0005.43
2022-06-18 09:08:00,,0823.4,4.99,0.00,29.6,27.6,00.0,38.5,31.3,20.3,0000.0,0010.86,0006.44,0005.41
2022-06-18 09:09:00,,0823.4,4.99,0.00,29.6,27.7,00.0,38.4,31.3,20.3,0000.0,0010.90,0006.45,0005.40
2022-06-18 09:10:00,,0823.4,5.01,0.00,29.6,27.9,00.0,38.4,31.4,20.3,0000.0,0011.05,0006.47,0005.38
2022-06-18 09:11:00,,0823.3,5.01,0.00,29.6,28.0,00.0,38.4,31.4,20.3,0000.0,0011.02,0006.45,0005.36
2022-06-18 09:12:00,,0823.4,5.00,0.00,29.6,28.1,00.0,38.4,31.4,20.3,0000.0,0010.76,0006.41,0005.33
2022-06-18 09:13:00,,0823.4,4.99,0.00,29.6,28.2,00.0,38.4,31.4,20.3,0000.0,0010.77,0006.40,0005.31
2022-06-18 09:14:00,,0823.3,5.00,0.00,29.6,28.3,00.0,38.4,31.5,20.3,0000.0,0010.75,0006.39,0005.29
2022-06-18 09:15:00,,0823.2,5.01,0.00,29.6,28.4,00.0,38.4,31.5,20.2,0000.0,0010.72,0006.40,0005.29
2022-06-18 09:16:00,,0823.3,5.00,0.00,29.6,28.5,00.0,38.4,31.5,20.1,0000.0,0010.73,0006.40,0005.29
2022-06-18 09:17:00,,0823.3,5.00,0.00,29.6,28.5,00.0,38.4,31.5,20.0,0000.0,0010.61,0006.36,0005.27
2022-06-18 09:18:00,,0823.3,5.00,0.00,29.7,28.6,00.0,38.5,31.6,20.0,0000.0,0010.71,0006.41,0005.28
2022-06-18 09:19:00,,0823.4,5.01,0.00,29.7,28.7,00.0,38.5,31.6,19.9,0000.0,0010.95,0006.52,0005.30
2022-06-18 09:20:00,,0823.4,4.99,0.00,29.7,28.7,00.0,38.5,31.6,19.8,0000.0,0010.97,0006.53,0005.32
2022-06-18 09:21:00,,0823.3,4.99,0.00,29.7,28.8,00.0,38.5,31.7,19.7,0000.0,0011.30,0006.53,0005.34
2022-06-18 09:22:00,,0823.4,5.01,0.00,29.7,28.8,00.0,38.5,31.7,19.7,0000.0,0011.15,0006.52,0005.35
2022-06-18 09:23:00,,0823.4,5.01,0.00,29.8,28.8,00.0,38.5,31.7,19.9,0000.0,0011.14,0006.55,0005.37
2022-06-18 09:24:00,,0823.4,5.00,0.00,29.8,28.9,00.0,38.5,31.7,20.1,0000.0,0011.05,0006.52,0005.38
2022-06-18 09:25:00,,0823.4,5.00,0.00,29.8,28.9,00.0,38.6,31.7,20.4,0000.0,0011.11,0006.56,0005.42
2022-06-18 09:26:00,,0823.4,5.00,0.00,29.8,28.9,00.0,38.6,31.7,20.6,0000.0,0011.14,0006.64,0005.50
2022-06-18 09:27:00,,0823.4,5.00,0.00,29.8,29.0,00.0,38.6,31.8,20.6,0000.0,0011.26,0006.77,0005.62
2022-06-18 09:28:00,,0823.4,5.00,0.00,29.9,29.0,00.0,38.6,31.8,20.6,0000.5,0011.29,0006.88,0005.76
2022-06-18 09:29:00,,0823.4,5.01,0.00,29.9,29.0,00.0,38.6,31.8,20.6,0002.3,0011.61,0007.07,0005.90
2022-06-18 09:30:00,,0823.4,4.99,0.00,29.9,29.0,00.0,38.6,31.9,20.6,0000.2,0011.69,0007.18,0006.01
2022-06-18 09:31:00,,0823.4,5.00,0.00,29.9,29.1,00.0,38.7,31.9,20.5,0000.5,0011.90,0007.31,0006.15
2022-06-18 09:32:00,,0823.3,5.00,0.00,29.9,29.1,00.0,38.7,31.9,20.4,0000.5,0011.69,0007.43,0006.27
2022-06-18 09:33:00,,0823.3,5.01,0.00,30.0,28.9,00.0,38.7,31.9,20.2,0000.0,0011.73,0007.55,0006.39
2022-06-18 09:34:00,,0823.3,5.01,0.00,29.9,28.1,00.0,38.6,31.7,20.0,0000.0,0011.76,0007.62,0006.48
2022-06-18 09:35:00,,0823.3,4.99,0.00,29.8,27.6,00.0,38.6,31.5,19.9,0000.0,0011.92,0007.70,0006.54
2022-06-18 09:36:00,,0823.4,5.01,0.00,29.8,27.6,00.0,38.6,31.4,19.9,0000.0,0012.08,0007.75,0006.58
2022-06-18 09:37:00,,0823.4,5.00,0.00,29.7,27.6,00.0,38.6,31.4,19.8,0000.0,0012.09,0007.72,0006.55
2022-06-18 09:38:00,,0823.3,4.98,0.00,29.7,27.7,00.0,38.6,31.4,19.8,0000.0,0012.15,0007.69,0006.47
2022-06-18 09:39:00,,0823.4,5.00,0.00,29.7,27.9,00.0,38.5,31.4,19.7,0000.0,0012.29,0007.64,0006.37
2022-06-18 09:40:00,,0823.4,5.00,0.00,29.7,28.0,00.0,38.5,31.4,19.7,0000.0,0012.35,0007.52,0006.25
2022-06-18 09:41:00,,0823.4,4.99,0.00,29.7,28.1,00.0,38.5,31.5,19.7,0000.0,0012.11,0007.34,0006.13
2022-06-18 09:42:00,,0823.3,5.00,0.00,29.7,28.2,00.0,38.5,31.5,19.7,0000.0,0011.94,0007.22,0006.01
2022-06-18 09:43:00,,0823.3,5.00,0.00,29.7,28.3,00.0,38.5,31.5,19.7,0000.0,0011.88,0007.12,0005.90
2022-06-18 09:44:00,,0823.3,4.99,0.00,29.7,28.4,00.0,38.5,31.5,19.7,0000.0,0011.77,0007.04,0005.81
2022-06-18 09:45:00,,0823.3,4.99,0.00,29.7,28.5,00.0,38.5,31.6,19.7,0000.0,0011.74,0006.97,0005.73
2022-06-18 09:46:00,,0823.3,4.99,0.00,29.7,28.6,00.0,38.5,31.6,19.7,0000.0,0011.92,0007.01,0005.69
2022-06-18 09:47:00,,0823.4,5.01,0.00,29.7,28.6,00.0,38.5,31.6,19.7,0000.0,0011.81,0006.94,0005.65
2022-06-18 09:48:00,,0823.4,5.00,0.00,29.8,28.7,00.0,38.6,31.7,19.7,0000.0,0011.75,0006.92,0005.62
2022-06-18 09:49:00,,0823.4,5.00,0.00,29.8,28.8,00.0,38.6,31.7,19.6,0000.0,0011.64,0006.88,0005.60
2022-06-18 09:50:00,,0823.5,5.00,0.00,29.8,28.8,00.0,38.6,31.7,19.6,0000.0,0011.42,0006.84,0005.58
2022-06-18 09:51:00,,0823.4,5.00,0.00,29.8,28.9,00.0,38.6,31.7,19.5,0000.0,0011.39,0006.87,0005.57
2022-06-18 09:52:00,,0823.4,5.01,0.00,29.8,28.9,00.0,38.6,31.8,19.5,0000.0,0011.53,0006.89,0005.56
2022-06-18 09:53:00,,0823.5,5.00,0.00,29.9,28.9,00.0,38.6,31.7,19.4,0000.0,0011.82,0006.98,0005.56
2022-06-18 09:54:00,,0823.6,5.00,0.00,29.9,29.0,00.0,38.6,31.8,19.4,0000.0,0011.83,0006.99,0005.55
2022-06-18 09:55:00,,0823.6,5.00,0.00,29.9,29.0,00.0,38.7,31.8,19.4,0000.0,0011.85,0007.00,0005.53
2022-06-18 09:56:00,,0823.6,5.00,0.00,29.9,29.0,00.0,38.7,31.9,19.3,0000.0,0011.83,0007.00,0005.52
2022-06-18 09:57:00,,0823.6,4.99,0.00,29.9,29.1,00.0,38.7,31.9,19.3,0000.0,0011.65,0006.93,0005.50
2022-06-18 09:58:00,,0823.6,4.99,0.00,29.9,28.5,00.0,38.7,31.8,19.2,0000.0,0011.92,0007.00,0005.50
2022-06-18 09:59:00,,0823.6,5.00,0.00,29.9,27.8,00.0,38.6,31.6,19.3,0000.0,0011.98,0007.00,0005.48
